Regional Weather Roundup
Issued by NWS Little Rock, AR

Home | Current Version | Previous Version | Text Only | Print | Product List | Glossary On
Versions: 1 2 3 4 5 6 7 8 9 10 11 12 13 14 15 16 17 18 19 20 21 22 23 24 25 26 27 28 29 30 31 32 33 34 35 36 37 38 39 40 41 42 43 44 45 46 47 48 49 50
000
ASUS44 KLZK 221805
RWRLZK

WEATHER ROUNDUP FOR ARKANSAS
NATIONAL WEATHER SERVICE LITTLE ROCK AR
100 PM CDT TUE JUL 22 2014

NOTE: "FAIR" INDICATES FEW OR NO CLOUDS BELOW 12,000 FEET WITH NO
SIGNIFICANT WEATHER AND/OR OBSTRUCTIONS TO VISIBILITY.

ARZ001-003-010-029-221900-
NORTHWEST ARKANSAS

CITY           SKY/WX    TMP DP  RH WIND       PRES   REMARKS
FAYETTEVILLE   MOSUNNY   86  70  58 CALM      30.12F HX  90
6HR MIN TEMP:  63; 6HR MAX TEMP:  88;

FORT SMITH     SUNNY     89  70  53 E5        30.09S HX  94
6HR MIN TEMP:  72; 6HR MAX TEMP:  89;

HARRISON       MOSUNNY   88  71  57 W6        30.13S HX  94
6HR MIN TEMP:  67; 6HR MAX TEMP:  88;

BENTONVILLE    MOSUNNY   88  72  58 W7        30.14F HX  94
6HR MIN TEMP:  66; 6HR MAX TEMP:  55;

ROGERS         MOSUNNY   86  72  62 W7        30.13F HX  92
6HR MIN TEMP:  69; 6HR MAX TEMP:  87;

SILOAM SPGS    SUNNY     88  70  55 SW6       30.13S HX  92
6HR MIN TEMP:  66; 6HR MAX TEMP:  88;

HIGHFILL       MOSUNNY   87  73  62 NW6       30.12F HX  94
6HR MIN TEMP:  67; 6HR MAX TEMP:  88; 6HR PCP:  0.02;

SPRINGDALE     PTSUNNY   86  72  62 NW3       30.15S HX  92
$$

ARZ004-005-016-221900-
NORTH CENTRAL ARKANSAS

CITY           SKY/WX    TMP DP  RH WIND       PRES   REMARKS
BATESVILLE     SUNNY     84  70  61 CALM      30.11R HX  88
6HR MIN TEMP:  64; 6HR MAX TEMP:  84;

FLIPPIN        SUNNY     86  66  51 E5        30.11S HX  88
6HR MIN TEMP:  63; 6HR MAX TEMP:  86;

MTN HOME       SUNNY     85  70  60 SE6       30.10F HX  89
6HR MIN TEMP:  67; 6HR MAX TEMP:  85;

$$

ARZ040-041-221900-
WEST CENTRAL ARKANSAS

CITY           SKY/WX    TMP DP  RH WIND       PRES   REMARKS
MENA           MOSUNNY   86  70  58 CALM      30.13S HX  90
MOUNT IDA      SUNNY     85  67  54 N3        30.10S HX  87
6HR MIN TEMP:  65; 6HR MAX TEMP:  85;

$$

ARZ009-017-025-026-028-221900-
NORTHEAST ARKANSAS

CITY           SKY/WX    TMP DP  RH WIND       PRES   REMARKS
JONESBORO      SUNNY     86  67  52 CALM      30.10S HX  89
6HR MIN TEMP:  66; 6HR MAX TEMP:  87;

NEWPORT        SUNNY     87  67  51 SE3       30.12S HX  90
6HR MIN TEMP:  67; 6HR MAX TEMP:  88;

WALNUT RIDGE   SUNNY     84  55  37 S5        30.09S
6HR MIN TEMP:  66; 6HR MAX TEMP:  84;

BLYTHEVILLE    SUNNY     87  70  56 CALM      30.10S HX  92
6HR MIN TEMP:  69; 6HR MAX TEMP:  89;

$$

ARZ022-023-033-042-044-221900-
CENTRAL ARKANSAS

CITY           SKY/WX    TMP DP  RH WIND       PRES   REMARKS
LITTLE ROCK    MOSUNNY   86  64  47 CALM      30.10S HX  87
6HR MIN TEMP:  69; 6HR MAX TEMP:  87;

N LITTLE ROCK  MOSUNNY   82  70  66 N5        30.10S HX  86
6HR MIN TEMP:  70; 6HR MAX TEMP:  84;

SEARCY         SUNNY     87  69  54 W3        30.11S HX  91
6HR MIN TEMP:  67; 6HR MAX TEMP:  87;

HOT SPRINGS    MOSUNNY   85  68  56 VRB3      30.11S HX  88
6HR MIN TEMP:  68; 6HR MAX TEMP:  85;

RUSSELLVILLE   MOSUNNY   85  69  58 E5        30.10S HX  89
6HR MIN TEMP:  67; 6HR MAX TEMP:  86;

CLINTON        FAIR      86  72  62 SE7       30.11S HX  92
$$

ARZ036-221900-
EAST ARKANSAS

CITY           SKY/WX    TMP DP  RH WIND       PRES   REMARKS
WEST MEMPHIS   MOSUNNY   88  71  57 NW6       30.08S HX  94
6HR MIN TEMP:  70; 6HR MAX TEMP:  88;

$$

ARZ050-053-066-070-073-221900-
SOUTHWEST ARKANSAS

CITY           SKY/WX    TMP DP  RH WIND       PRES   REMARKS
ARKADELPHIA    FAIR      87  71  58 CALM      30.10S HX  92
6HR MIN TEMP:  68; 6HR MAX TEMP:  87;

CAMDEN         MOSUNNY   90  64  43 NE3       30.09S HX  91
TEXARKANA      CLOUDY    85  68  56 NW5       30.09S HX  88
6HR MIN TEMP:  68; 6HR MAX TEMP:  87;

EL DORADO      MOSUNNY   87  66  49 N3        30.10R HX  89
6HR MIN TEMP:  67; 6HR MAX TEMP:  88;

DE QUEEN       MOSUNNY   85  69  58 CALM      30.08S HX  89
6HR MIN TEMP:  66; 6HR MAX TEMP:  86;

$$

ARZ056-057-069-221900-
SOUTHEAST ARKANSAS

CITY           SKY/WX    TMP DP  RH WIND       PRES   REMARKS
PINE BLUFF     SUNNY     86  66  51 E5        30.10S HX  88
6HR MIN TEMP:  67; 6HR MAX TEMP:  86;

STUTTGART      MOSUNNY   84  70  61 N5        30.12R HX  88
6HR MIN TEMP:  68; 6HR MAX TEMP:  84;

MONTICELLO     SUNNY     87  67  51 VRB5      30.09S HX  90
6HR MIN TEMP:  68; 6HR MAX TEMP:  87;


$$




USA.gov is the U.S. government's official web portal to all federal, state and local government web resources and services.